�N����,����,�~����,�C��,���x,�C��,����,���ϕ���,�ő�u�ԕ���,�ő厞����,���˗�,�I�_���x,�n�����x,�ő啗���N��,DTYPE
"16/05/02","00:10",0.0,12.6,78.8,1012.1,330.0,1.5,1.9,326.9,0.00,9.1,16.5,"00:00:40",1
"16/05/02","00:20",0.0,12.3,78.7,1012.6,318.0,1.6,2.5,329.1,0.00,8.8,16.2,"00:18:42",1
"16/05/02","00:30",0.0,12.9,75.2,1012.3,335.2,2.0,3.3,342.4,0.00,8.7,16.2,"00:25:52",1
"16/05/02","00:40",0.0,13.2,73.3,1012.3,323.7,1.6,2.9,340.9,0.00,8.6,16.2,"00:36:24",1
"16/05/02","00:50",0.0,13.3,72.6,1012.1,312.8,1.7,2.8,320.0,0.00,8.5,16.3,"00:47:36",1
"16/05/02","01:00",0.0,13.3,73.0,1012.1,282.3,1.1,1.6,298.0,0.00,8.6,16.2,"00:50:24",1
"16/05/02","01:10",0.0,12.9,74.2,1011.9,285.9,1.1,1.3,310.2,0.00,8.5,15.9,"01:08:34",1
"16/05/02","01:20",0.0,12.6,75.5,1012.1,298.5,1.2,1.6,326.4,0.00,8.4,15.8,"01:16:48",1
"16/05/02","01:30",0.0,12.3,78.0,1012.3,313.3,1.5,2.1,330.0,0.00,8.6,16.1,"01:26:32",1
"16/05/02","01:40",0.0,11.9,80.0,1011.9,295.8,0.7,1.3,311.6,0.00,8.6,15.7,"01:32:00",1
"16/05/02","01:50",0.0,11.6,81.6,1012.3,302.7,1.0,1.6,326.2,0.00,8.6,15.9,"01:47:36",1
"16/05/02","02:00",0.0,11.3,82.2,1012.3,321.2,1.6,2.0,330.4,0.00,8.4,15.7,"01:51:04",1
"16/05/02","02:10",0.0,11.1,82.7,1012.3,286.2,1.1,1.6,324.7,0.00,8.3,15.7,"02:00:08",1
"16/05/02","02:20",0.0,11.3,82.4,1012.3,321.5,1.2,2.1,329.4,0.00,8.5,15.6,"02:15:16",1
"16/05/02","02:30",0.0,11.1,82.6,1012.8,312.0,1.6,2.0,311.0,0.00,8.3,15.5,"02:22:12",1
"16/05/02","02:40",0.0,10.8,83.8,1012.8,308.7,1.2,1.9,313.6,0.00,8.2,15.3,"02:31:14",1
"16/05/02","02:50",0.0,10.8,84.0,1012.8,302.7,1.2,1.9,321.5,0.00,8.2,15.6,"02:49:56",1
"16/05/02","03:00",0.0,11.1,83.3,1012.6,311.3,1.3,1.8,323.5,0.00,8.4,15.4,"02:50:48",1
"16/05/02","03:10",0.0,11.1,83.1,1012.6,326.2,1.5,2.1,325.4,0.00,8.4,15.4,"03:02:36",1
"16/05/02","03:20",0.0,10.9,83.7,1012.8,273.2,0.5,0.9,300.7,0.00,8.3,15.4,"03:10:32",1
"16/05/02","03:30",0.0,10.8,84.2,1012.8,313.2,1.2,2.7,324.7,0.00,8.3,15.2,"03:28:50",1
"16/05/02","03:40",0.0,10.3,86.0,1013.0,323.0,1.8,2.6,331.8,0.00,8.1,15.3,"03:30:40",1
"16/05/02","03:50",0.0,10.1,87.2,1013.0,280.6,1.0,1.1,305.6,0.00,8.1,15.0,"03:40:22",1
"16/05/02","04:00",0.0,10.1,88.3,1013.0,307.7,1.2,1.8,318.6,0.00,8.3,15.3,"03:57:46",1
"16/05/02","04:10",0.0,10.2,88.1,1013.0,307.7,1.3,1.9,309.3,0.00,8.4,15.2,"04:02:28",1
"16/05/02","04:20",0.0,10.1,88.2,1012.8,299.5,1.1,1.3,311.6,0.00,8.3,15.1,"04:17:10",1
"16/05/02","04:30",0.0,10.3,87.4,1012.8,318.6,1.3,2.0,328.0,0.00,8.3,15.1,"04:27:40",1
"16/05/02","04:40",0.0,10.1,87.9,1013.0,309.3,1.3,2.0,321.1,0.00,8.2,15.0,"04:32:54",1
"16/05/02","04:50",0.0,10.0,88.5,1013.0,279.2,0.6,1.1,283.3,0.00,8.2,14.9,"04:47:42",1
"16/05/02","05:00",0.0,10.0,88.6,1013.8,313.5,1.6,2.0,325.2,0.00,8.2,15.0,"04:59:06",1
"16/05/02","05:10",0.0,9.9,89.7,1013.8,306.9,0.8,1.4,323.4,0.00,8.3,14.9,"05:00:42",1
"16/05/02","05:20",0.0,10.0,89.5,1014.0,339.1,0.7,1.7,309.8,0.00,8.4,14.8,"05:19:54",1
"16/05/02","05:30",0.0,9.9,90.1,1014.2,325.4,2.0,2.2,336.0,0.00,8.4,14.7,"05:23:50",1
"16/05/02","05:40",0.0,10.0,90.7,1014.0,311.4,1.3,2.0,329.9,0.00,8.6,14.8,"05:30:42",1
"16/05/02","05:50",0.0,10.2,91.2,1013.8,297.8,1.3,1.7,315.9,0.01,8.9,14.7,"05:49:00",1
"16/05/02","06:00",0.0,10.8,90.7,1014.2,318.1,1.6,2.4,320.5,0.02,9.4,14.8,"05:51:24",1
"16/05/02","06:10",0.0,11.6,90.2,1014.5,314.7,1.1,1.6,319.4,0.03,10.1,14.7,"06:02:32",1
"16/05/02","06:20",0.0,12.5,89.1,1014.2,307.3,0.3,1.2,321.4,0.04,10.8,14.6,"06:10:08",1
"16/05/02","06:30",0.0,13.3,86.2,1014.5,311.5,0.2,0.8,269.3,0.06,11.1,14.8,"06:20:24",1
"16/05/02","06:40",0.0,13.9,79.9,1014.9,332.1,1.0,1.6,325.5,0.08,10.5,14.8,"06:36:32",1
"16/05/02","06:50",0.0,14.6,77.1,1015.2,325.5,1.2,1.9,335.9,0.09,10.7,14.8,"06:45:12",1
"16/05/02","07:00",0.0,15.4,70.2,1015.6,319.0,0.8,1.3,310.4,0.11,10.0,14.9,"06:55:44",1
"16/05/02","07:10",0.0,16.0,70.7,1015.4,340.2,0.5,1.1,329.7,0.14,10.7,14.8,"07:00:08",1
"16/05/02","07:20",0.0,16.4,67.1,1015.4,267.9,0.2,0.5,131.0,0.16,10.3,15.0,"07:10:08",1
"16/05/02","07:30",0.0,17.1,65.7,1015.6,267.2,0.2,0.8,254.5,0.18,10.7,15.1,"07:24:16",1
"16/05/02","07:40",0.0,17.3,63.1,1015.4,194.7,0.2,1.1,127.6,0.21,10.3,15.2,"07:38:56",1
"16/05/02","07:50",0.0,17.9,62.9,1015.2,173.6,0.3,1.0,113.2,0.23,10.8,15.2,"07:43:36",1
"16/05/02","08:00",0.0,18.4,59.9,1014.9,141.8,0.3,1.1,127.3,0.26,10.5,15.3,"07:53:04",1
"16/05/02","08:10",0.0,18.6,59.0,1014.7,99.1,0.6,1.9,110.3,0.29,10.5,15.4,"08:01:12",1
"16/05/02","08:20",0.0,19.1,60.4,1014.9,120.3,1.0,2.2,115.8,0.31,11.3,15.7,"08:13:44",1
"16/05/02","08:30",0.0,19.4,55.6,1014.9,157.0,1.1,2.0,142.6,0.34,10.3,15.6,"08:26:16",1
"16/05/02","08:40",0.0,20.0,58.4,1014.7,155.7,0.8,2.2,122.5,0.36,11.6,15.8,"08:36:08",1
"16/05/02","08:50",0.0,20.4,55.2,1014.2,162.8,1.0,2.7,135.1,0.38,11.2,16.0,"08:48:56",1
"16/05/02","09:00",0.0,20.8,50.3,1014.5,157.2,0.8,1.8,113.9,0.41,10.1,16.2,"08:55:20",1
"16/05/02","09:10",0.0,21.1,50.0,1014.0,158.1,0.8,2.1,128.7,0.43,10.3,16.1,"09:09:36",1
"16/05/02","09:20",0.0,21.6,49.0,1013.8,168.9,1.0,2.6,125.3,0.44,10.5,16.5,"09:18:08",1
"16/05/02","09:30",0.0,22.2,50.0,1013.8,111.5,0.6,1.8,106.0,0.46,11.3,16.7,"09:28:16",1
"16/05/02","09:40",0.0,21.8,47.7,1013.3,130.5,1.6,3.1,119.7,0.48,10.3,16.8,"09:33:12",1
"16/05/02","09:50",0.0,22.3,50.1,1013.3,159.1,1.7,3.7,123.4,0.50,11.5,17.0,"09:45:36",1
"16/05/02","10:00",0.0,22.8,50.8,1013.3,186.2,1.7,4.5,212.4,0.51,12.1,17.2,"09:52:48",1
"16/05/02","10:10",0.0,22.7,50.4,1013.0,152.2,1.8,3.4,214.0,0.52,11.9,17.3,"10:02:24",1
"16/05/02","10:20",0.0,22.8,50.2,1013.0,136.2,1.7,3.1,144.8,0.54,11.9,17.6,"10:10:40",1
"16/05/02","10:30",0.0,23.4,49.7,1013.0,148.4,1.5,3.1,141.8,0.55,12.3,17.9,"10:23:12",1
"16/05/02","10:40",0.0,23.6,51.0,1013.0,163.9,1.7,2.7,187.6,0.55,12.9,18.1,"10:31:12",1
"16/05/02","10:50",0.0,24.3,51.1,1012.3,185.9,1.0,2.5,193.5,0.56,13.6,18.3,"10:46:32",1
"16/05/02","11:00",0.0,24.4,48.9,1012.6,197.1,1.5,2.8,215.5,0.57,13.0,18.5,"10:55:12",1
"16/05/02","11:10",0.0,24.8,48.3,1012.1,176.2,1.1,3.2,116.1,0.58,13.2,18.8,"11:08:00",1
"16/05/02","11:20",0.0,25.2,47.4,1011.6,123.8,1.1,3.1,118.9,0.59,13.3,18.9,"11:19:44",1
"16/05/02","11:30",0.0,25.4,47.7,1011.6,202.5,1.2,3.3,234.0,0.59,13.5,19.3,"11:22:00",1
"16/05/02","11:40",0.0,25.6,47.9,1011.4,126.3,1.3,3.1,120.9,0.59,13.8,19.5,"11:33:28",1
"16/05/02","11:50",0.0,26.1,44.2,1011.6,168.2,1.2,2.6,153.5,0.59,13.0,19.8,"11:44:56",1
"16/05/02","12:00",0.0,26.4,46.2,1011.6,120.8,1.1,3.1,120.3,0.60,14.0,19.7,"11:52:24",1
"16/05/02","12:10",0.0,26.5,44.4,1011.4,160.0,2.1,3.6,165.8,0.60,13.4,20.3,"12:06:32",1
"16/05/02","12:20",0.0,26.8,41.7,1011.4,70.4,1.5,3.6,110.7,0.60,12.8,20.2,"12:19:44",1
"16/05/02","12:30",0.0,27.5,43.7,1011.2,135.1,1.3,3.2,101.6,0.60,14.1,20.7,"12:25:20",1
"16/05/02","12:40",0.0,27.4,41.0,1011.4,156.0,1.6,3.9,122.2,0.59,13.0,21.0,"12:38:08",1
"16/05/02","12:50",0.0,27.1,42.0,1011.2,121.1,1.7,3.5,110.6,0.58,13.1,20.9,"12:48:24",1
"16/05/02","13:00",0.0,27.7,37.8,1011.2,155.9,1.7,3.4,151.0,0.58,12.1,21.2,"12:50:24",1
"16/05/02","13:10",0.0,27.8,39.9,1010.9,123.4,1.7,4.1,117.3,0.58,13.0,21.4,"13:04:00",1
"16/05/02","13:20",0.0,28.6,39.9,1010.9,110.1,1.0,3.3,7.1,0.57,13.7,21.3,"13:14:08",1
"16/05/02","13:30",0.0,28.5,33.9,1010.9,153.7,2.1,5.5,195.0,0.56,11.1,21.5,"13:27:04",1
"16/05/02","13:40",0.0,28.6,34.0,1011.2,112.3,1.2,3.4,124.7,0.55,11.3,21.6,"13:38:24",1
"16/05/02","13:50",0.0,29.4,36.2,1011.2,179.7,1.0,3.1,117.1,0.53,12.9,21.8,"13:40:08",1
"16/05/02","14:00",0.0,29.3,35.2,1011.2,167.1,1.5,3.9,218.2,0.51,12.4,21.8,"13:50:40",1
"16/05/02","14:10",0.0,29.6,30.9,1010.7,191.6,1.7,3.5,201.2,0.49,10.7,21.7,"14:00:32",1
"16/05/02","14:20",0.0,29.4,27.4,1010.4,154.9,2.0,5.2,125.1,0.48,8.7,22.0,"14:14:08",1
"16/05/02","14:30",0.0,29.6,28.3,1010.4,169.4,2.6,5.0,199.8,0.47,9.4,22.1,"14:20:24",1
"16/05/02","14:40",0.0,29.7,27.1,1010.4,166.8,2.3,4.4,207.9,0.45,8.8,22.2,"14:38:40",1
"16/05/02","14:50",0.0,29.8,27.2,1010.2,186.6,2.5,4.0,228.0,0.43,9.0,22.3,"14:44:24",1
"16/05/02","15:00",0.0,30.1,26.1,1010.2,189.5,2.5,4.8,194.1,0.41,8.6,22.3,"14:52:08",1
"16/05/02","15:10",0.0,30.2,28.5,1009.7,211.9,1.8,3.6,211.5,0.39,10.0,22.5,"15:01:20",1
"16/05/02","15:20",0.0,29.8,27.2,1009.7,213.2,2.1,5.0,199.7,0.37,9.0,22.4,"15:14:08",1
"16/05/02","15:30",0.0,30.0,24.2,1009.5,211.3,1.6,4.0,180.4,0.35,7.4,22.3,"15:29:28",1
"16/05/02","15:40",0.0,30.5,27.9,1009.5,190.2,2.0,3.5,172.3,0.33,9.9,22.5,"15:34:00",1
"16/05/02","15:50",0.0,30.7,22.2,1009.5,248.5,1.0,2.9,162.6,0.30,6.7,22.5,"15:43:12",1
"16/05/02","16:00",0.0,30.6,23.4,1009.5,193.3,1.3,3.6,203.5,0.27,7.4,22.4,"15:59:04",1
"16/05/02","16:10",0.0,29.9,26.2,1009.5,182.9,2.2,3.6,227.2,0.25,8.5,22.5,"16:00:56",1
"16/05/02","16:20",0.0,29.8,25.3,1009.3,223.1,1.7,4.4,179.2,0.22,7.9,22.2,"16:11:36",1
"16/05/02","16:30",0.0,29.4,26.8,1009.3,187.3,2.3,4.1,221.4,0.20,8.4,22.3,"16:20:24",1
"16/05/02","16:40",0.0,29.1,25.9,1009.0,197.5,2.5,4.1,197.9,0.16,7.6,22.2,"16:35:12",1
"16/05/02","16:50",0.0,28.9,25.8,1009.5,211.9,2.6,4.4,212.5,0.14,7.4,22.2,"16:46:08",1
"16/05/02","17:00",0.0,28.6,27.5,1009.0,216.5,2.5,4.3,197.1,0.08,8.1,22.0,"16:50:48",1
"16/05/02","17:10",0.0,28.2,27.6,1008.8,219.1,2.6,5.5,228.7,0.04,7.8,21.8,"17:02:40",1
"16/05/02","17:20",0.0,27.8,25.7,1008.6,211.8,2.3,3.9,192.6,0.04,6.4,21.8,"17:17:20",1
"16/05/02","17:30",0.0,27.3,27.0,1009.3,202.7,2.2,4.4,229.3,0.03,6.7,21.7,"17:20:56",1
"16/05/02","17:40",0.0,27.0,28.0,1009.5,201.3,2.0,3.7,223.9,0.02,7.0,21.5,"17:35:28",1
"16/05/02","17:50",0.0,26.7,31.9,1009.5,231.8,0.7,2.2,167.8,0.02,8.6,21.6,"17:44:08",1
"16/05/02","18:00",0.0,26.1,30.4,1009.7,324.1,0.8,1.8,347.3,0.01,7.4,21.5,"17:51:04",1
"16/05/02","18:10",0.0,25.7,32.1,1010.0,336.3,0.6,1.3,357.0,0.00,7.9,21.2,"18:09:36",1
"16/05/02","18:20",0.0,25.1,35.0,1010.2,32.2,0.7,2.2,352.3,0.00,8.6,21.2,"18:12:16",1
"16/05/02","18:30",0.0,24.5,37.5,1010.7,345.7,1.1,2.6,13.0,0.00,9.1,21.1,"18:21:36",1
"16/05/02","18:40",0.0,23.8,42.2,1010.9,348.9,1.1,2.1,334.8,0.00,10.2,21.1,"18:39:12",1
"16/05/02","18:50",0.0,23.0,45.9,1010.9,336.8,1.5,2.7,351.3,0.00,10.8,20.9,"18:48:56",1
"16/05/02","19:00",0.0,21.9,49.1,1011.2,332.6,1.7,2.6,344.6,0.00,10.8,20.8,"18:55:44",1
"16/05/02","19:10",0.0,21.1,52.3,1010.9,333.8,1.0,1.7,321.6,0.00,11.0,20.5,"19:07:36",1
"16/05/02","19:20",0.0,20.5,53.5,1011.6,323.3,0.6,1.2,310.4,0.00,10.8,20.4,"19:10:08",1
"16/05/02","19:30",0.0,20.5,54.3,1011.6,345.3,2.0,3.6,344.7,0.00,11.0,20.4,"19:25:36",1
"16/05/02","19:40",0.0,20.0,56.6,1011.9,335.5,2.0,2.8,341.7,0.00,11.2,20.4,"19:39:44",1
"16/05/02","19:50",0.0,19.5,58.7,1012.1,317.1,1.5,2.7,343.1,0.00,11.2,20.0,"19:40:48",1
"16/05/02","20:00",0.0,19.2,60.0,1012.1,306.5,1.3,1.9,308.8,0.00,11.3,20.0,"19:50:02",1
"16/05/02","20:10",0.0,19.1,60.5,1012.8,303.5,1.6,2.4,308.1,0.00,11.3,19.9,"20:00:48",1
"16/05/02","20:20",0.0,18.9,60.1,1012.8,305.8,1.3,2.4,340.9,0.00,11.0,19.6,"20:19:44",1
"16/05/02","20:30",0.0,18.8,60.3,1013.0,328.1,1.3,2.0,321.4,0.00,11.0,19.5,"20:21:36",1
"16/05/02","20:40",0.0,18.6,60.1,1013.0,301.3,0.8,1.7,309.2,0.00,10.8,19.6,"20:38:32",1
"16/05/02","20:50",0.0,18.7,60.7,1012.8,259.8,1.0,1.7,243.6,0.00,11.0,19.5,"20:48:24",1
"16/05/02","21:00",0.0,18.6,62.1,1012.8,309.2,1.2,1.6,321.6,0.00,11.2,19.2,"20:59:52",1
"16/05/02","21:10",0.0,18.1,63.4,1013.0,300.1,1.2,1.4,324.4,0.00,11.1,19.3,"21:00:56",1
"16/05/02","21:20",0.0,17.9,64.4,1013.3,302.5,1.1,1.7,316.6,0.00,11.1,19.1,"21:14:48",1
"16/05/02","21:30",0.0,17.8,65.5,1013.3,305.3,1.3,1.8,327.2,0.00,11.3,19.0,"21:21:36",1
"16/05/02","21:40",0.0,17.6,66.8,1013.3,308.4,1.0,1.2,311.7,0.00,11.4,19.2,"21:30:32",1
"16/05/02","21:50",0.0,17.3,68.3,1013.3,297.2,1.0,1.3,303.3,0.00,11.5,18.9,"21:46:16",1
"16/05/02","22:00",0.0,17.1,69.7,1013.0,315.2,1.3,2.0,320.0,0.00,11.6,18.7,"21:53:52",1
"16/05/02","22:10",0.0,17.1,71.6,1012.8,326.6,1.3,2.0,320.9,0.00,12.0,18.6,"22:00:32",1
"16/05/02","22:20",0.0,16.7,73.1,1012.8,295.8,0.7,1.1,316.4,0.00,11.9,18.7,"22:10:16",1
"16/05/02","22:30",0.0,16.4,74.1,1013.0,314.7,1.0,1.2,332.6,0.00,11.8,18.6,"22:23:20",1
"16/05/02","22:40",0.0,16.3,76.4,1013.3,318.1,1.3,1.8,305.4,0.00,12.2,18.5,"22:35:12",1
"16/05/02","22:50",0.0,16.0,77.4,1013.0,322.4,1.2,1.7,310.6,0.00,12.1,18.4,"22:49:44",1
"16/05/02","23:00",0.0,16.0,77.2,1013.0,300.8,1.2,1.7,323.8,0.00,12.1,18.4,"22:50:40",1
"16/05/02","23:10",0.0,16.1,77.2,1013.0,312.3,1.3,1.9,319.2,0.00,12.1,18.2,"23:05:12",1
"16/05/02","23:20",0.0,16.0,77.6,1013.3,296.1,1.1,1.6,319.2,0.00,12.1,18.2,"23:16:40",1
"16/05/02","23:30",0.0,15.8,79.0,1013.0,327.6,1.3,1.9,333.8,0.00,12.2,18.1,"23:28:16",1
"16/05/02","23:40",0.0,15.6,79.9,1013.0,305.0,0.8,1.4,305.5,0.00,12.2,18.0,"23:32:16",1
"16/05/02","23:50",0.0,15.3,81.2,1013.3,289.0,1.0,1.3,324.6,0.00,12.1,18.2,"23:44:48",1
"16/05/02","24:00",0.0,15.5,81.0,1013.0,306.4,1.3,2.1,328.2,0.00,12.3,17.7,"23:59:52",1
